Tracking 33165 objects as of 7-Feb-2026
HD Live streaming from Space Station
objects crossing your sky now

OSCAR 32

Track OSCAR 32 now!
10-day predictions
OSCAR 32 is classified as:


NORAD ID: 19071
Int'l Code: 1988-033B
Perigee: 1,019.8 km
Apogee: 1,303.4 km
Inclination: 90.3 °
Period: 108.4 minutes
Semi major axis: 7532 km
RCS: 1.686 m2 (large)
Launch date: April 26, 1988
Source: United States (US)
Launch site: AIR FORCE WESTERN TEST RANGE (AFWTR)
Your satellite tracking list
Your tracking list is empty




NASA's NSSDC Master Catalog

Two Line Element Set (TLE):
1 19071U 88033B   26038.47456662  .00000112  00000-0  20903-3 0  9990
2 19071  90.3243  18.2850 0188259  10.0566 100.6218 13.27963764830182
Source of the keplerian elements: AFSPC